Wind_Speed
15 14 14 13 12 12 12 13 13 13 13 13 13 13 14 15 15 14 14 12 10 10 11 11 11 11 10 10 10 10 10 10 10 9 8 6 10 13 13 16 16 19 22 23 22 21 20 17 16 16 17 15 10 9 11 10 8 4 1 1 2 2 3 2 4 4 3 3 5 10 11 8 7 9 12 11 10 13 9 6 11 5 8 18 16 27 33 31
14 13 13 13 12 12 12 12 13 13 13 13 13 13 13 14 15 14 14 13 11 10 10 11 11 11 10 10 10 9 8 5 3 3 2 3 9 12 15 17 17 20 23 24 24 23 22 20 19 18 18 14 9 9 7 7 8 5 1 0 3 3 3 3 2 5 4 5 7 10 11 8 9 13 14 10 8 11 8 9 13 13 16 17 20 32 32 31
14 13 13 12 12 12 12 12 12 13 13 13 14 14 13 13 14 14 14 13 12 10 9 10 11 11 10 10 9 8 5 2 1 3 5 3 9 11 15 18 18 20 22 23 21 20 18 20 21 19 19 11 8 9 6 5 5 6 3 1 4 4 4 6 3 7 5 9 11 9 10 8 11 16 14 9 8 9 7 11 15 19 22 23 30 34 31 31
14 13 12 12 12 12 12 12 12 12 12 13 14 14 14 14 14 14 14 13 12 11 9 10 10 10 10 9 8 7 3 1 1 4 8 6 7 9 14 17 18 17 19 19 18 17 14 17 19 18 17 8 7 8 5 7 5 5 5 3 4 3 2 7 3 5 6 13 15 11 9 7 13 17 14 13 9 4 9 16 18 23 29 32 36 35 32 31
13 13 13 13 12 12 12 12 13 13 13 13 13 14 14 15 15 14 14 13 12 11 10 10 10 10 10 8 8 5 0 2 3 5 8 7 7 8 13 17 17 15 18 18 18 17 14 17 18 16 13 5 5 5 5 11 8 3 5 7 9 7 5 9 5 4 8 14 15 11 9 9 15 15 16 18 9 6 15 19 19 26 31 35 38 36 33 30
13 13 13 13 13 12 12 13 13 13 13 13 13 14 14 15 15 15 14 13 12 11 10 10 10 9 8 8 8 2 2 2 5 6 6 6 8 9 13 16 17 16 17 18 19 19 17 21 20 15 10 3 4 5 5 10 9 4 5 8 12 12 8 10 6 7 11 15 14 11 10 13 14 9 16 20 9 6 17 20 19 26 29 35 40 36 34 33
13 12 12 13 13 13 13 13 14 13 14 13 13 14 14 15 15 15 14 13 12 10 9 10 9 8 7 8 7 3 5 2 6 7 6 6 7 8 11 15 17 17 18 19 21 20 20 23 21 15 9 3 4 6 6 7 8 5 5 6 13 15 12 14 10 9 14 17 16 14 12 15 13 8 14 19 10 4 15 20 20 25 30 37 39 35 35 34
14 13 12 13 13 14 14 14 15 15 14 14 14 14 15 15 15 16 14 13 12 10 8 8 8 8 6 7 5 2 4 3 7 6 6 7 6 6 9 14 17 18 18 19 22 21 21 23 22 15 7 4 3 4 5 5 6 6 6 9 11 13 15 18 12 12 16 15 15 14 11 13 13 10 11 17 13 7 16 21 21 28 33 37 37 34 34 33
15 13 13 13 13 14 15 16 16 16 15 15 15 15 16 16 16 16 15 13 11 10 8 6 7 7 6 6 4 0 4 5 6 5 5 6 4 3 6 12 16 19 19 19 20 21 21 21 22 15 6 8 4 1 4 1 2 5 8 11 9 13 19 17 11 15 17 14 16 13 7 9 11 8 7 15 15 11 20 23 25 31 34 36 34 32 34 34
16 14 13 13 13 15 16 16 16 17 16 16 16 16 17 17 16 16 14 12 10 9 7 6 6 5 5 4 1 3 6 6 5 4 3 3 2 2 4 9 13 18 20 20 20 21 21 19 22 15 4 7 5 3 3 1 4 6 10 13 12 16 19 15 10 15 17 12 17 12 3 8 11 5 4 13 17 17 23 26 28 33 36 36 32 32 34 34
17 15 14 14 14 15 16 17 17 17 16 16 17 18 18 17 16 15 13 11 9 7 6 6 5 4 4 4 2 4 7 5 4 5 3 2 2 3 2 4 11 16 19 21 21 21 21 17 18 13 3 2 2 5 5 4 7 12 13 12 11 13 15 12 7 15 15 8 15 12 5 6 7 3 4 14 20 22 27 28 31 34 36 35 30 31 33 33
18 17 16 15 15 16 16 17 17 17 16 16 17 17 16 16 15 13 11 9 8 6 5 5 5 4 4 6 7 5 6 5 4 6 6 4 2 2 3 1 7 13 16 20 21 21 21 17 15 10 3 0 1 3 6 10 12 13 9 5 7 9 9 7 6 17 15 7 16 14 6 3 7 4 6 16 22 25 28 29 32 34 35 34 29 31 33 33
19 18 17 16 16 17 17 17 17 17 16 16 16 14 14 14 14 12 9 7 6 6 4 4 5 5 4 4 6 7 6 6 5 5 6 6 5 2 1 1 4 9 11 14 17 20 21 17 15 10 2 1 2 3 8 14 12 9 4 0 3 7 5 4 5 15 11 8 20 15 1 5 8 7 8 18 25 27 28 29 32 32 33 33 29 30 33 33
20 19 18 17 17 17 17 17 17 16 15 15 13 12 13 13 12 9 6 5 5 5 3 4 4 4 5 3 8 8 6 6 5 5 6 7 7 5 2 3 5 8 9 10 12 16 20 18 15 11 6 5 6 8 9 10 6 3 2 1 2 2 4 6 3 13 7 8 21 12 3 5 6 8 12 21 29 29 27 27 30 31 32 33 30 30 32 34
21 20 20 18 18 18 17 17 17 16 14 13 11 12 13 11 9 7 4 4 4 3 3 5 4 4 6 4 8 9 7 7 5 5 6 6 7 6 4 5 6 7 8 9 9 10 16 19 15 9 8 7 7 7 5 4 3 2 1 2 3 0 4 7 2 12 6 6 18 8 3 5 4 8 17 22 29 30 27 27 29 30 31 32 30 29 31 33
21 21 20 19 19 18 17 17 17 16 13 11 10 12 13 10 9 6 3 2 2 3 4 5 5 4 4 3 7 8 7 7 5 5 6 5 6 5 4 6 5 6 7 7 9 8 11 16 14 10 8 5 2 1 2 4 4 3 1 1 2 1 3 5 1 8 5 5 10 7 2 3 4 9 20 23 27 28 25 26 29 31 32 32 31 30 30 32
22 22 21 20 19 18 17 16 17 16 11 10 10 12 12 10 6 2 1 1 1 3 4 5 5 4 3 4 6 7 6 5 6 8 8 7 6 4 4 6 6 7 7 7 9 9 11 13 11 7 6 2 2 3 2 2 3 3 2 1 1 1 2 3 3 3 3 5 7 8 4 4 4 7 21 24 26 25 23 25 28 30 31 31 31 30 31 32
23 22 21 20 19 18 16 15 16 14 9 9 10 11 10 6 2 2 2 4 4 2 3 4 2 1 3 6 6 5 3 3 6 8 7 8 9 6 5 4 5 8 8 7 8 10 11 10 7 2 1 1 3 4 3 3 3 1 1 2 2 2 2 3 3 1 4 3 5 7 7 8 4 4 17 24 26 24 23 25 27 29 30 30 31 30 31 33
22 22 21 20 19 17 15 14 15 13 8 7 9 8 5 3 1 2 2 7 7 2 1 3 5 2 2 6 5 2 1 2 6 9 8 9 10 10 7 4 6 10 9 4 4 10 10 5 4 3 2 3 3 5 6 5 5 5 3 2 1 2 2 4 4 4 5 4 4 6 7 10 6 4 12 20 26 24 21 23 25 27 28 29 30 30 30 33
22 21 20 19 18 16 14 14 13 11 7 5 6 5 4 6 2 2 8 12 7 4 5 6 8 9 6 4 2 1 1 2 5 6 8 9 11 12 9 8 8 8 6 4 4 8 9 4 2 5 4 4 5 6 7 5 4 4 2 1 2 2 3 4 5 6 4 5 5 7 8 11 8 5 10 19 23 20 19 20 22 25 28 29 30 31 31 31
23 21 20 19 17 14 13 12 11 9 6 4 3 3 7 8 3 4 11 11 4 4 8 8 10 14 10 5 3 4 3 2 4 4 7 10 13 13 9 7 7 3 2 4 5 4 7 5 4 5 6 6 5 5 5 2 2 2 1 1 3 2 4 5 5 6 2 4 5 5 7 10 8 6 10 17 18 17 21 23 24 27 29 30 31 32 32 29
25 23 21 18 15 13 11 11 9 6 3 4 4 7 9 8 4 4 8 7 9 10 8 7 9 14 13 9 6 5 4 2 2 4 8 12 14 11 7 5 5 3 1 2 5 4 3 4 5 6 6 4 2 4 5 2 2 2 1 1 2 3 3 5 5 3 1 2 4 3 4 8 9 8 10 16 18 20 28 30 30 32 31 31 33 34 33 30
26 24 21 16 13 12 10 9 7 3 4 6 6 9 7 5 3 5 6 6 11 10 6 7 9 12 12 9 6 5 4 3 1 4 9 13 13 10 7 6 4 3 2 3 5 5 3 3 7 7 5 4 1 2 5 3 1 2 3 2 3 2 1 2 4 3 2 2 5 3 3 6 7 6 8 18 23 23 28 30 29 31 34 36 37 36 34 33
26 23 20 15 12 10 9 8 4 1 6 6 5 7 4 2 3 7 7 4 5 6 4 4 7 9 9 6 5 5 5 4 2 4 9 13 11 8 7 6 5 2 2 4 6 6 3 5 5 5 5 5 3 0 4 3 1 2 4 4 3 2 3 4 4 6 5 4 4 1 2 5 4 4 5 12 19 18 21 24 22 26 32 33 32 32 34 34
24 22 18 15 12 10 8 5 1 3 7 6 3 3 3 4 6 9 7 2 3 4 2 2 4 5 5 4 5 6 5 4 3 4 8 11 10 7 5 5 5 3 3 5 6 4 4 6 3 5 3 4 3 3 3 5 1 3 4 7 6 5 5 6 3 5 5 4 2 3 4 5 4 3 5 6 10 12 15 18 20 25 29 27 27 30 34 34
22 20 17 15 13 11 6 1 0 2 6 6 3 1 4 6 8 9 5 3 1 3 1 2 2 4 5 4 6 6 2 2 3 5 8 9 8 7 6 2 2 3 4 5 3 2 2 2 4 5 3 4 3 4 3 6 4 1 4 7 8 7 6 6 2 1 0 2 3 4 4 4 5 3 6 6 9 10 11 14 19 25 27 27 30 31 33 34
19 17 15 14 14 12 6 1 1 2 5 4 2 1 5 6 8 7 3 4 2 2 0 1 1 3 4 4 8 6 2 2 4 4 8 9 7 7 6 2 0 2 3 4 2 2 2 1 2 3 3 4 2 3 4 7 6 3 5 6 7 7 6 5 4 3 3 3 4 4 4 2 4 5 5 6 8 8 9 11 15 23 27 29 30 32 34 36
16 14 13 14 14 13 8 3 2 3 4 2 1 3 5 6 6 4 2 4 2 2 0 1 1 3 3 5 8 5 1 5 4 3 5 7 4 3 4 4 5 3 2 5 3 4 1 3 3 4 3 3 4 6 7 8 5 6 6 7 6 7 7 5 5 4 2 2 5 6 1 2 4 6 2 5 7 8 11 13 14 20 27 30 32 35 36 37
12 12 13 14 14 13 9 5 3 2 1 1 2 2 4 4 4 2 4 2 2 2 0 1 0 2 2 3 5 3 0 3 3 3 5 4 1 2 3 2 5 4 4 5 4 3 1 2 5 6 4 3 5 6 6 9 6 4 4 6 4 4 5 4 5 4 1 2 4 6 1 1 4 5 1 4 5 9 13 12 12 18 26 30 34 38 38 37
10 11 12 13 14 13 10 6 3 2 3 3 1 1 2 2 1 3 2 1 1 2 2 1 2 1 1 3 1 2 2 3 4 6 9 9 8 9 7 5 5 5 3 5 3 2 4 1 4 4 1 4 5 4 5 9 7 1 3 2 3 2 1 3 2 3 3 1 6 7 4 4 2 5 0 1 5 9 11 10 10 15 24 32 36 37 38 38
8 12 13 13 14 14 12 9 6 4 4 3 3 2 2 1 3 5 2 1 1 3 4 2 2 1 3 4 2 3 3 4 5 6 7 9 11 12 9 5 6 5 4 5 2 2 6 4 1 1 4 4 1 1 1 1 1 1 2 2 3 1 3 4 3 2 4 3 6 5 4 7 2 3 3 7 9 7 6 9 12 17 24 32 35 35 36 37
9 12 13 14 14 13 11 9 7 6 5 6 6 4 2 2 3 2 1 3 2 2 2 2 2 2 2 3 3 4 4 4 6 6 4 4 7 8 6 2 1 3 2 2 0 3 4 2 4 5 6 11 6 1 3 4 4 4 4 4 4 1 2 1 1 1 3 4 5 3 3 4 4 3 4 10 12 12 11 9 9 16 25 30 32 35 35 35
9 12 13 15 14 11 9 8 8 8 8 9 6 2 4 5 3 1 2 2 0 1 2 1 2 3 3 4 3 4 6 4 5 6 4 3 4 3 3 4 3 3 3 1 1 4 1 2 8 6 6 12 7 3 2 2 4 3 3 4 4 2 2 2 3 0 2 4 3 2 1 1 2 1 6 10 10 13 18 21 20 13 18 27 30 32 34 35
9 11 13 14 13 11 8 8 9 10 12 10 2 3 6 5 1 2 3 2 2 2 3 2 2 4 5 4 1 2 5 5 5 5 4 3 5 3 4 7 8 3 3 2 2 2 3 0 7 4 4 9 6 2 1 3 1 1 3 4 4 4 4 3 3 3 3 3 2 2 2 2 3 3 4 9 12 18 24 26 28 27 16 15 26 26 28 32
8 8 11 13 13 11 10 10 12 15 15 8 4 6 6 2 2 2 2 3 2 3 3 3 4 5 5 4 3 3 5 3 3 6 6 4 4 3 4 5 7 4 3 3 1 1 4 1 5 4 3 4 5 4 3 2 1 2 1 4 3 3 4 2 3 5 4 2 1 1 2 1 3 3 7 14 15 19 26 29 30 31 30 14 14 25 28 32
6 5 8 12 13 13 12 13 15 18 16 5 5 5 3 1 1 2 1 2 2 2 3 5 6 5 4 4 5 7 6 4 3 4 5 4 4 4 4 3 5 5 3 3 1 1 3 1 5 7 5 4 6 6 3 5 2 1 3 2 3 3 4 3 1 1 3 5 2 1 1 5 3 2 11 17 16 18 22 26 26 26 30 27 11 14 27 34
6 5 9 14 16 15 14 15 17 19 13 5 7 4 0 0 2 2 3 3 2 1 4 4 3 3 2 3 4 6 5 4 3 3 3 3 3 5 5 4 4 6 2 2 2 1 3 1 4 5 4 8 12 7 2 7 5 2 2 2 3 2 3 3 1 2 4 4 1 3 4 5 5 3 10 17 19 20 19 18 21 26 29 28 26 21 15 29
6 6 12 18 19 17 17 18 18 14 8 8 6 4 2 2 5 5 6 4 2 3 5 4 1 2 2 3 3 6 4 3 3 3 3 3 2 3 4 4 5 10 8 2 2 1 3 1 4 3 2 9 13 7 1 10 11 4 2 1 1 3 1 1 2 2 2 3 1 3 3 5 5 4 8 15 17 17 16 16 17 22 26 25 27 32 25 17
6 6 13 20 18 16 17 15 15 14 11 6 3 3 1 2 7 11 10 5 3 4 4 2 2 3 4 3 1 4 6 4 2 3 2 2 1 2 4 3 4 11 13 8 4 1 2 3 2 6 5 5 7 7 3 8 9 4 3 3 3 2 2 1 2 2 3 3 3 2 3 4 3 5 6 9 12 13 14 14 13 16 22 25 27 32 33 21
6 5 11 18 15 13 13 13 17 16 9 2 1 2 2 1 7 16 18 10 5 6 4 2 3 3 3 4 3 3 6 5 3 3 2 3 1 1 4 4 3 6 8 9 6 1 2 4 1 6 7 4 3 3 3 3 5 5 5 5 4 3 1 2 2 2 2 3 3 3 3 1 4 4 5 7 9 10 12 12 12 16 21 26 31 33 35 32
6 4 9 15 13 10 11 14 13 9 3 1 1 1 3 3 6 13 19 17 11 10 7 4 4 4 2 4 4 3 4 4 4 4 3 3 2 1 4 7 4 4 4 6 5 3 1 2 2 2 5 5 4 2 2 4 5 5 4 4 3 3 2 4 2 2 1 3 2 4 5 1 3 3 4 6 7 8 12 13 13 18 23 27 34 37 37 36
8 4 9 14 11 9 12 11 6 3 3 3 4 5 5 5 5 9 13 14 11 10 10 6 4 4 3 3 3 3 4 3 4 3 3 3 4 1 7 11 6 2 3 3 2 2 2 3 4 2 1 1 2 1 5 5 4 5 5 4 3 2 3 4 2 1 2 3 1 2 5 3 3 2 4 7 9 9 14 16 16 19 24 27 34 39 41 40
10 7 10 13 9 9 13 7 5 4 4 3 5 9 10 7 6 8 10 10 7 5 8 6 4 5 5 3 3 3 4 4 4 3 2 2 4 5 11 14 9 4 3 2 1 2 2 3 4 2 3 4 4 3 5 6 4 4 4 5 4 3 2 2 3 2 2 3 2 2 4 3 3 3 7 9 12 12 16 19 19 21 24 29 35 39 43 43
9 11 16 16 7 5 9 4 2 3 4 4 5 7 10 10 10 9 7 8 8 3 3 4 4 5 4 3 4 3 2 3 3 3 2 1 3 10 17 19 12 6 5 2 1 1 2 2 3 3 2 4 4 4 4 5 5 3 3 6 6 6 6 2 1 3 3 1 1 3 3 2 2 4 8 10 12 13 17 19 20 21 24 28 33 39 43 45
4 7 15 20 16 12 8 3 3 4 2 5 6 5 6 7 10 12 7 7 11 8 4 3 4 5 4 3 5 5 5 5 2 2 3 2 2 8 17 20 16 11 8 5 2 2 2 2 3 4 3 2 2 1 2 3 4 2 3 7 7 7 8 3 2 4 2 1 1 3 2 2 3 5 8 10 11 12 16 19 21 23 25 26 33 40 43 45
3 3 6 14 19 19 13 6 5 4 2 3 4 5 5 2 5 12 11 8 10 11 8 5 3 4 5 5 6 6 7 6 3 2 3 2 2 4 11 17 19 16 12 10 8 4 4 3 2 5 5 5 5 4 3 1 2 2 4 7 7 6 6 3 3 2 2 1 1 2 2 2 7 9 10 10 11 11 14 18 21 23 26 27 33 41 43 43
4 2 2 5 10 12 13 12 9 5 2 3 2 2 5 2 2 8 9 6 7 8 7 7 6 3 3 4 5 4 5 5 5 4 2 2 2 3 7 13 18 17 12 10 9 4 5 3 1 4 4 4 6 2 2 2 2 1 3 5 6 6 6 5 3 1 3 4 1 4 1 4 7 10 10 9 9 9 12 16 17 19 24 27 33 40 42 42
4 2 2 3 3 3 5 8 9 8 6 4 3 2 4 4 3 3 4 5 7 7 4 5 8 5 3 3 4 2 3 4 5 3 1 2 2 3 6 7 11 15 12 9 8 5 5 1 1 3 2 0 2 1 2 3 1 1 1 3 5 6 6 4 2 1 3 5 2 4 3 6 6 8 8 8 9 9 11 14 15 19 25 30 34 39 41 41
7 4 5 7 5 3 3 3 6 10 8 5 4 3 2 4 4 1 2 3 5 7 5 4 4 6 5 4 5 4 2 2 2 2 1 2 2 2 3 2 5 12 10 6 5 4 3 1 2 3 3 2 1 1 3 3 2 4 4 4 4 5 4 3 3 3 1 3 2 2 5 7 7 7 6 8 9 9 11 16 19 22 25 29 32 35 38 39
7 5 5 7 8 8 8 6 5 7 5 4 3 2 2 3 3 2 3 4 2 3 5 5 3 3 5 5 6 5 3 5 5 2 2 1 1 0 1 1 1 6 8 3 3 4 2 2 1 3 4 1 3 2 2 1 1 2 5 5 5 5 4 3 4 4 4 2 2 4 5 5 7 8 7 8 10 11 14 17 20 20 22 26 29 31 34 35
9 7 5 6 5 7 7 5 4 4 3 4 2 1 2 2 1 1 4 5 2 2 3 6 6 3 5 6 6 4 5 7 7 5 6 4 2 3 2 2 3 1 4 2 2 3 3 2 1 4 4 2 3 0 1 1 2 4 5 6 5 5 3 3 4 5 4 3 3 4 4 4 7 9 6 7 10 13 14 15 18 19 21 25 27 27 29 31
8 8 6 6 3 6 5 3 4 4 2 2 1 1 1 1 1 2 3 5 4 4 6 9 7 4 4 4 3 3 5 5 4 5 7 7 6 7 6 5 3 3 2 1 1 1 2 3 1 2 3 2 4 2 3 1 5 2 3 2 2 3 3 1 4 6 4 2 1 3 4 3 6 9 6 6 8 10 11 13 16 19 22 23 24 25 26 27
Wind_Direction
346 347 344 340 340 342 342 341 342 342 344 347 348 348 346 343 340 336 336 339 337 331 324 325 324 322 321 318 314 309 308 301 296 294 283 255 211 207 195 192 193 184 177 174 180 182 176 176 175 170 173 175 181 194 201 219 235 249 247 191 255 227 208 209 183 174 152 157 150 166 173 145 140 151 138 130 128 137 146 150 152 153 155 157 163 162 156 158
341 344 341 339 338 340 339 337 338 338 340 343 344 346 345 342 339 335 335 338 337 332 326 325 324 321 321 321 318 315 311 301 312 338 323 219 196 199 191 188 189 185 181 176 179 181 179 177 174 171 172 175 190 199 207 223 226 219 184 249 235 223 217 264 195 161 147 161 155 167 177 159 155 155 148 141 134 140 127 128 135 122 132 147 158 157 156 163
337 340 340 337 336 338 337 336 336 335 336 339 341 342 342 341 338 334 333 336 337 332 326 325 324 320 322 323 324 322 311 281 334 51 60 137 183 191 189 185 185 185 186 184 181 182 185 181 173 170 169 170 189 195 208 211 206 209 211 259 236 238 253 295 244 191 194 162 151 164 180 167 162 159 154 146 140 151 151 147 141 134 140 149 156 158 159 166
333 336 338 335 333 335 335 334 334 332 334 335 337 337 337 337 336 333 331 335 336 332 325 323 322 319 321 323 329 325 307 246 191 92 68 86 153 176 182 181 181 182 185 185 180 178 184 183 173 167 166 162 190 198 220 211 198 193 198 223 260 302 293 305 292 206 197 162 155 159 169 163 165 165 157 144 138 183 190 174 164 153 153 154 158 161 164 170
333 333 335 334 333 335 335 333 332 331 331 332 334 333 333 333 332 331 329 333 336 332 323 321 321 319 322 324 329 319 239 100 155 111 71 80 112 153 174 177 177 178 181 181 177 173 177 181 170 162 165 159 181 199 242 223 218 222 239 253 272 298 295 301 311 183 168 153 153 156 165 161 161 168 167 162 160 208 192 181 175 166 161 162 163 164 167 173
334 333 334 333 333 335 335 334 333 332 330 330 331 330 329 328 327 327 327 330 334 331 320 319 319 322 324 321 327 289 178 123 149 118 82 90 105 143 168 174 175 176 178 178 177 173 171 172 166 159 162 169 186 202 245 229 220 243 270 262 271 273 264 281 277 186 168 152 159 169 168 157 154 173 181 180 182 197 188 181 178 174 170 168 166 167 171 177
337 335 333 332 333 335 335 336 335 333 331 329 329 329 327 325 324 322 323 327 330 329 318 317 318 323 325 317 325 260 226 193 145 119 95 106 114 142 166 177 181 181 175 174 177 172 168 167 167 161 150 176 208 214 251 251 222 227 276 273 279 273 262 272 264 205 184 171 172 169 160 163 164 173 182 189 193 186 184 179 178 176 172 169 168 171 175 179
340 337 334 331 333 335 335 337 336 333 332 330 330 328 326 325 321 318 320 323 325 326 314 312 315 320 324 316 331 282 225 175 141 118 105 123 129 141 170 183 189 193 182 176 178 172 168 168 170 165 153 194 183 195 244 280 235 218 253 262 278 276 273 279 263 209 192 178 169 162 164 180 178 168 177 191 195 186 176 174 175 173 170 169 169 174 178 181
344 340 337 333 333 334 335 338 336 334 332 331 330 328 326 324 319 316 317 319 320 320 310 305 312 315 318 316 337 129 181 164 150 128 117 137 137 122 169 188 194 199 193 184 181 176 171 170 174 169 169 203 188 241 236 306 238 205 238 259 275 277 281 284 259 204 189 174 165 163 172 183 173 163 183 192 189 179 172 170 172 171 170 170 172 177 180 183
348 344 342 337 334 333 334 336 334 333 332 330 330 328 326 321 318 315 315 316 314 314 305 299 308 303 306 316 353 153 165 165 174 165 138 154 158 101 153 193 198 201 199 191 185 182 179 175 176 171 159 194 197 283 249 210 262 273 279 279 276 278 286 283 249 195 179 175 173 165 161 177 172 169 199 190 181 170 166 168 171 171 171 172 175 181 183 187
352 349 346 340 336 333 333 334 332 331 330 330 330 327 325 319 316 316 316 315 310 310 298 295 301 280 292 294 247 180 161 165 184 187 206 214 162 70 62 193 199 201 201 198 192 188 186 178 172 174 178 194 233 293 289 289 291 298 302 299 285 293 297 281 229 178 167 171 177 156 96 171 189 236 203 180 175 169 165 166 171 173 173 175 178 183 186 189
352 350 347 341 336 333 332 332 330 329 328 329 330 328 322 315 313 318 319 313 308 310 295 291 288 265 286 278 244 193 169 187 185 185 207 216 183 51 23 23 194 197 202 203 199 193 188 179 170 177 188 70 300 298 315 323 315 301 301 304 296 325 311 264 173 167 169 162 169 147 81 200 216 237 184 174 174 171 168 167 171 174 175 177 180 184 187 190
348 347 344 340 335 332 331 331 328 326 327 329 332 328 317 312 316 322 319 314 311 309 298 284 278 269 289 271 209 171 180 209 203 192 193 196 206 212 44 67 169 188 204 210 206 199 190 182 182 190 213 350 309 309 314 318 317 301 296 237 301 347 323 270 141 163 169 157 165 157 122 240 221 214 179 174 173 168 167 168 172 175 177 179 181 185 188 191
343 342 341 338 334 330 329 328 325 323 326 330 333 325 314 313 323 328 317 316 317 310 300 281 283 283 278 210 168 177 204 213 201 181 172 180 193 200 186 140 145 167 191 206 207 204 195 190 194 209 242 261 291 318 321 319 323 303 295 41 349 354 289 315 88 155 155 167 172 168 285 254 229 201 178 173 172 167 165 170 175 176 179 181 183 187 189 193
338 337 336 335 332 329 328 326 321 322 327 332 334 324 316 318 329 335 317 312 317 312 305 288 292 298 285 221 176 195 211 210 195 169 172 174 174 175 165 159 153 154 171 190 192 197 199 198 201 214 242 261 290 319 336 335 343 359 341 308 341 43 266 321 97 165 154 166 179 176 292 266 267 181 174 174 171 169 167 171 177 178 181 183 186 189 191 194
336 334 333 332 330 327 326 323 318 322 329 333 334 325 320 322 327 330 308 280 280 289 294 285 289 297 294 230 185 194 206 212 209 202 204 190 169 153 147 164 168 160 158 168 170 171 188 197 204 217 238 262 278 301 12 357 342 2 69 257 295 32 299 326 15 188 151 117 183 206 243 265 297 169 170 175 173 170 169 173 178 180 183 185 187 190 192 195
336 334 332 330 328 325 324 320 316 321 330 334 333 329 325 328 340 357 100 84 310 291 284 274 281 288 255 189 173 177 193 209 219 224 220 207 192 175 170 174 178 177 158 151 162 161 167 180 189 213 237 235 135 115 59 355 310 317 14 16 254 74 335 321 339 230 158 124 189 223 235 252 305 163 167 175 178 174 173 177 180 182 185 186 188 191 194 196
336 334 331 328 326 324 323 318 315 320 331 336 335 333 327 332 27 122 101 27 353 314 289 260 220 273 223 190 167 159 174 200 211 210 210 214 205 199 210 194 184 177 153 146 161 159 165 172 163 168 246 154 131 116 137 223 207 201 74 46 318 3 354 299 319 252 191 189 202 211 236 253 289 164 170 176 179 181 182 182 183 184 186 188 190 193 196 199
336 333 329 326 324 324 323 318 316 320 330 342 339 336 335 332 289 214 310 333 315 263 272 234 186 181 228 194 177 163 222 211 199 195 201 215 202 197 208 192 175 165 147 138 165 169 168 155 137 173 205 170 172 159 174 200 164 148 149 135 245 304 306 273 282 259 196 201 233 204 228 248 240 180 177 178 181 186 187 184 185 187 189 191 193 195 198 201
337 334 328 325 323 324 323 318 317 321 335 356 338 336 13 1 340 261 320 320 298 243 256 253 241 265 275 215 200 357 352 186 191 197 200 203 190 184 181 161 152 151 146 144 169 183 170 154 188 193 186 186 200 191 181 181 146 129 125 140 258 275 285 261 267 273 196 173 245 220 223 245 227 192 187 181 182 187 186 185 188 189 191 194 196 199 201 203
337 335 332 327 325 327 324 318 318 324 351 26 7 63 57 28 22 320 326 324 306 282 277 267 257 263 261 236 250 345 350 198 182 194 191 184 178 175 174 154 129 129 191 158 141 157 164 183 221 194 189 196 196 181 166 156 124 107 107 306 305 261 257 256 249 276 228 171 257 239 226 251 237 206 191 182 183 190 188 187 190 191 194 197 199 201 203 204
337 337 339 334 329 329 325 320 319 325 31 80 94 99 83 52 27 325 326 312 300 304 287 262 247 248 246 240 259 302 306 251 183 191 180 171 174 179 176 141 124 154 229 127 121 128 168 216 234 215 195 180 167 154 145 141 143 126 111 92 290 262 280 287 268 292 44 166 271 253 209 251 246 217 195 187 189 195 195 193 192 191 192 197 201 202 203 203
338 340 345 341 333 332 326 321 318 326 112 118 106 99 88 57 22 332 325 294 294 305 288 253 237 240 245 248 258 259 245 233 205 187 173 169 174 180 168 138 128 149 121 108 133 147 182 235 229 213 164 145 224 146 120 102 106 164 148 147 247 251 41 297 286 332 24 221 250 233 208 264 259 226 206 197 195 197 200 200 197 194 195 199 201 201 201 202
340 344 349 344 336 335 329 319 314 141 139 135 104 95 78 10 320 319 322 297 287 308 299 239 221 234 245 246 240 228 222 230 224 176 173 173 169 169 172 148 123 138 163 152 137 144 210 244 209 162 136 155 214 277 111 121 295 254 198 192 204 172 176 229 284 335 336 296 250 193 9 307 276 231 225 200 196 199 200 199 200 201 203 204 203 202 203 204
344 348 350 345 340 342 335 321 287 159 155 148 116 88 34 332 309 313 326 339 289 305 322 181 197 211 212 208 210 208 214 229 224 187 179 177 167 159 164 141 134 178 189 144 127 134 248 256 163 125 137 153 176 248 186 163 207 309 229 207 189 169 206 238 296 353 357 342 290 87 49 306 299 251 230 190 191 196 191 193 200 204 207 207 205 205 206 206
347 351 353 347 346 352 348 330 66 170 168 167 159 44 347 321 316 313 326 47 1 303 342 148 171 175 175 182 189 179 172 227 205 186 177 175 173 153 140 129 132 176 167 141 130 157 250 265 148 148 170 147 164 252 219 158 144 298 243 202 182 176 205 238 258 39 64 282 283 76 95 271 311 284 223 187 193 196 183 193 201 203 205 206 207 207 206 207
350 356 359 352 354 3 5 12 16 131 150 167 195 317 320 316 324 313 322 51 15 306 351 151 139 161 167 161 171 161 123 174 144 134 160 174 194 169 152 184 119 153 159 122 93 221 192 53 113 152 154 147 170 251 222 161 139 226 230 162 150 171 197 216 185 181 230 267 309 16 104 213 297 281 234 175 181 197 193 200 202 202 205 206 208 210 209 208
355 4 6 1 5 8 11 26 51 112 131 150 249 301 307 309 321 323 84 75 333 308 76 243 166 157 151 150 177 182 140 157 125 86 147 166 202 180 158 193 174 158 107 113 150 253 187 132 168 159 135 155 197 226 202 158 161 237 210 156 151 173 185 183 160 187 259 356 318 320 66 161 277 288 291 145 171 205 210 209 203 200 204 206 208 212 212 211
2 12 10 7 8 7 13 33 63 79 79 330 340 316 309 302 311 7 88 83 318 317 108 267 108 170 159 141 189 231 96 112 89 103 125 118 119 105 103 166 158 136 65 92 158 233 282 158 165 137 131 194 221 237 185 159 196 232 157 148 150 159 174 158 145 161 58 41 270 277 248 142 279 291 44 128 185 216 215 214 207 200 202 206 210 212 212 212
2 9 8 5 1 1 6 4 351 348 325 334 346 322 337 318 1 64 65 84 40 329 320 287 253 216 124 93 71 319 46 66 67 90 76 59 64 70 74 79 85 102 42 34 111 227 309 44 118 98 117 234 238 248 177 175 206 210 76 114 106 61 66 84 91 111 79 304 257 256 210 144 288 293 228 167 236 226 215 212 205 201 204 208 211 212 211 211
356 358 356 355 351 351 356 355 349 344 343 5 2 351 10 358 68 87 86 293 349 339 344 301 269 46 94 115 82 4 37 37 29 66 57 39 50 46 41 50 43 50 21 7 59 328 349 34 61 330 354 351 345 115 96 166 227 101 89 107 109 31 21 45 7 72 119 250 263 251 173 133 145 284 315 323 322 312 258 225 210 203 205 207 210 211 210 211
352 352 350 349 347 343 344 346 350 357 358 358 353 356 72 57 37 79 272 318 327 322 336 287 310 31 85 95 62 18 39 37 14 44 63 34 50 49 45 59 42 69 45 315 343 12 14 24 321 309 0 14 30 77 5 10 35 84 113 87 92 16 19 91 279 162 173 247 260 223 138 131 189 209 343 345 348 350 342 321 275 232 215 208 207 208 209 210
343 351 353 351 352 352 350 345 346 353 349 341 341 11 87 80 42 332 311 332 289 282 313 306 352 51 86 70 53 29 47 44 2 27 53 55 65 68 54 41 41 121 139 205 55 31 39 323 346 354 353 359 27 73 352 330 23 48 133 116 121 133 91 183 235 27 207 241 258 249 200 222 218 156 6 357 353 353 357 357 348 311 243 221 212 208 207 208
339 355 1 359 2 7 6 357 350 349 343 339 2 78 67 75 29 344 342 287 257 337 353 354 2 39 57 52 23 61 62 37 7 34 39 39 49 16 359 14 16 54 111 86 74 71 125 70 354 11 338 346 12 51 289 226 310 330 182 138 126 151 140 183 208 160 185 226 296 300 218 183 169 147 35 12 2 3 6 4 5 4 341 248 219 211 209 209
339 354 3 3 4 4 1 355 352 352 345 345 86 74 62 78 281 319 323 281 289 334 334 6 41 48 33 11 352 31 73 57 20 49 42 42 60 9 343 350 356 17 73 70 44 64 109 125 319 312 292 352 5 327 337 116 182 269 157 105 100 159 154 149 182 177 168 145 116 218 207 238 203 178 23 14 9 11 11 8 7 8 4 346 225 211 210 212
8 6 6 7 6 1 354 349 349 352 347 4 86 54 59 112 277 244 277 305 307 316 333 8 36 47 9 354 0 4 36 62 52 53 36 46 69 19 349 315 340 16 69 102 88 20 82 76 314 326 320 355 2 320 356 67 161 231 58 111 196 166 136 118 176 252 76 116 165 297 345 337 327 323 358 3 8 12 11 10 8 3 4 6 340 237 218 214
51 33 13 11 9 0 353 352 350 351 358 57 83 52 142 33 335 259 291 316 285 335 61 49 17 39 21 20 11 342 3 41 43 55 35 23 37 3 340 318 354 18 21 129 113 76 103 173 309 353 327 321 344 334 327 22 28 118 94 250 236 122 110 110 114 10 46 117 171 28 57 21 13 336 341 356 4 6 5 5 6 6 7 4 354 337 273 227
54 37 18 8 2 358 359 1 358 2 38 78 72 65 105 7 354 333 319 328 340 30 67 80 35 63 70 65 13 342 0 30 17 51 62 31 24 0 349 328 359 10 1 46 109 22 70 82 294 340 280 303 343 13 346 348 4 69 134 280 100 113 129 28 97 139 119 139 126 52 64 46 29 322 337 359 359 355 357 1 7 9 6 359 351 351 342 273
33 28 16 4 0 5 10 16 28 45 66 72 63 61 74 354 359 6 5 7 41 53 56 54 59 65 57 82 62 3 34 56 37 60 68 45 37 9 14 347 334 1 11 44 91 296 33 83 283 311 325 320 355 35 34 331 342 20 32 11 42 115 146 78 86 141 150 157 153 85 41 33 357 317 342 0 351 351 356 359 7 8 6 5 357 354 357 344
34 35 13 3 7 17 27 53 62 61 64 67 102 50 18 358 358 16 34 50 49 48 54 18 37 64 47 51 67 36 44 49 47 68 58 32 60 15 27 23 322 336 10 48 70 28 17 69 39 312 333 18 36 16 38 12 353 13 30 23 3 349 37 76 53 51 112 139 150 114 80 21 301 318 359 0 349 357 2 359 1 2 5 12 10 4 3 5
43 41 8 11 22 31 56 74 63 53 65 41 44 1 13 39 2 12 39 59 63 54 64 74 59 66 58 48 47 31 50 47 31 62 77 29 50 92 6 5 332 310 2 41 40 27 44 86 84 347 356 57 80 5 34 58 46 48 52 29 349 341 54 85 60 345 44 102 130 128 119 160 291 330 16 10 360 358 5 7 3 3 7 13 18 17 11 12
64 54 4 18 37 59 78 73 23 14 76 46 36 32 33 40 10 359 23 45 59 52 50 60 59 50 49 57 49 34 68 59 13 44 92 35 52 48 334 350 358 8 59 71 346 348 91 99 75 40 3 127 161 348 9 23 48 64 53 28 359 11 72 108 135 284 6 39 50 95 114 181 258 357 33 11 3 4 10 15 10 7 11 15 20 24 21 19
67 59 28 28 38 75 86 66 347 13 47 44 58 47 46 47 17 6 15 25 34 43 44 38 32 47 43 40 57 53 65 60 24 41 101 39 37 14 359 12 26 41 61 76 323 350 60 74 63 31 323 302 282 314 356 3 27 44 21 16 19 356 349 156 162 148 63 23 13 62 94 170 248 17 40 12 1 10 16 17 15 11 13 19 23 26 26 24
63 54 44 41 40 82 91 79 6 41 20 28 56 41 46 51 30 21 21 20 19 32 65 34 24 48 40 33 62 63 70 80 48 25 51 88 19 14 24 34 37 35 44 52 278 14 38 67 81 78 17 340 328 334 342 350 17 40 350 353 5 357 360 20 84 68 67 21 75 111 126 179 266 3 31 14 4 14 16 15 17 16 12 17 24 27 29 29
47 47 42 47 62 81 89 117 116 89 38 36 48 27 31 45 35 31 38 42 35 41 68 33 25 53 45 46 62 42 40 75 93 14 35 37 339 8 26 35 37 37 42 48 54 67 86 98 105 118 140 181 199 251 274 312 348 11 349 347 354 0 6 21 72 55 75 210 91 123 182 264 321 12 26 16 12 16 13 12 15 16 13 16 25 30 30 30
34 42 22 38 59 68 67 72 85 86 82 62 52 26 22 33 26 30 39 48 35 41 57 36 12 52 40 49 68 35 23 44 66 86 60 5 325 353 18 32 35 30 32 42 43 60 95 74 89 125 137 168 178 209 247 314 19 6 355 347 345 350 358 36 87 73 125 131 25 196 190 348 0 17 21 15 17 15 8 9 11 12 13 14 24 32 33 30
47 36 329 16 45 50 48 44 45 62 100 103 99 13 11 13 356 21 36 42 26 38 56 32 20 54 48 60 87 46 7 21 37 62 66 346 292 323 15 37 35 24 25 37 30 52 99 57 36 109 117 163 164 183 311 43 67 28 359 336 329 336 352 27 60 112 128 97 341 275 110 53 14 18 22 10 13 16 9 9 7 7 13 17 23 32 34 31
66 60 43 60 45 13 33 27 30 54 63 61 82 51 11 34 47 25 24 26 23 31 55 31 18 32 59 89 112 91 12 20 21 13 12 4 344 343 12 35 31 22 26 32 28 64 107 100 195 117 80 170 150 84 37 64 33 304 312 312 315 328 342 352 310 264 120 125 238 299 57 67 23 19 27 8 6 15 10 10 12 14 19 24 26 29 31 30
75 83 61 72 79 54 42 7 31 61 55 34 54 52 24 47 48 8 342 25 21 16 48 81 18 14 38 64 98 113 115 108 51 323 283 17 14 14 19 12 14 19 22 24 25 54 99 144 194 133 82 28 332 28 91 89 10 330 330 322 316 311 317 329 305 308 52 139 187 12 76 73 27 17 38 22 13 25 23 21 23 20 19 23 25 26 27 28
67 76 63 77 75 45 38 31 38 59 43 26 56 41 22 52 39 6 20 56 95 354 36 102 115 46 51 56 82 113 164 160 148 192 191 105 14 4 54 226 256 7 13 18 5 18 82 146 184 105 83 353 313 28 86 140 166 355 343 341 352 348 347 4 359 359 19 30 22 39 77 68 13 7 41 37 24 33 33 25 23 20 17 21 24 23 23 25
68 78 80 90 60 13 21 36 42 65 36 21 62 35 3 23 13 49 27 25 91 133 110 140 143 79 49 53 79 131 180 165 158 186 186 172 203 208 198 199 183 35 9 12 339 359 72 110 22 68 82 255 277 11 253 269 78 55 359 347 357 2 354 0 32 50 39 351 347 31 60 46 357 354 20 34 27 33 33 26 22 20 19 21 22 21 21 22
62 71 77 96 62 360 10 26 31 66 65 347 33 78 27 332 288 123 78 18 38 102 139 155 145 95 59 63 89 162 191 186 201 230 213 210 226 216 215 230 205 165 152 137 31 350 99 110 131 95 102 232 267 243 221 46 56 42 305 317 321 319 319 13 63 59 43 1 31 49 50 29 356 350 0 20 25 29 31 29 25 21 18 18 18 19 19 17
Height
1512 1511 1510 1509 1508 1507 1506 1505 1504 1503 1502 1501 1500 1499 1499 1498 1497 1495 1495 1494 1494 1493 1492 1492 1491 1491 1490 1490 1489 1488 1487 1485 1484 1483 1482 1482 1483 1484 1486 1487 1489 1491 1492 1494 1496 1498 1499 1501 1502 1504 1506 1507 1509 1509 1511 1511 1511 1512 1513 1518 1519 1516 1510 1503 1502 1502 1500 1501 1502 1503 1504 1506 1509 1510 1510 1511 1513 1513 1515 1516 1516 1517 1517 1518 1521 1523 1526 1527
1512 1510 1509 1508 1507 1506 1505 1504 1503 1502 1501 1500 1499 1499 1498 1497 1496 1495 1494 1493 1493 1492 1492 1491 1490 1490 1489 1489 1488 1487 1486 1485 1484 1483 1482 1481 1482 1483 1485 1486 1488 1490 1491 1493 1494 1496 1498 1500 1501 1503 1505 1508 1509 1510 1511 1510 1511 1511 1513 1517 1516 1510 1504 1498 1498 1498 1497 1499 1500 1503 1504 1506 1507 1508 1509 1512 1514 1514 1516 1517 1518 1518 1519 1520 1522 1525 1527 1528
1511 1510 1509 1508 1507 1505 1505 1504 1503 1502 1501 1500 1499 1498 1497 1496 1495 1494 1493 1493 1492 1492 1491 1490 1489 1489 1488 1488 1487 1486 1485 1484 1484 1483 1482 1481 1482 1483 1484 1486 1488 1490 1491 1493 1495 1497 1499 1500 1501 1503 1506 1508 1509 1510 1511 1510 1510 1510 1513 1517 1512 1504 1501 1498 1497 1497 1496 1497 1499 1502 1504 1505 1507 1507 1509 1511 1513 1515 1515 1516 1516 1517 1519 1521 1523 1525 1527 1529
1510 1509 1508 1507 1506 1505 1504 1503 1502 1501 1500 1499 1498 1497 1496 1495 1494 1493 1493 1492 1492 1491 1490 1489 1489 1488 1487 1487 1486 1486 1485 1484 1483 1483 1482 1482 1482 1483 1484 1486 1488 1490 1492 1494 1496 1498 1500 1501 1502 1504 1506 1508 1509 1510 1510 1510 1510 1509 1510 1513 1506 1501 1502 1499 1497 1497 1497 1497 1499 1502 1503 1505 1506 1507 1508 1509 1514 1516 1513 1513 1513 1514 1517 1520 1523 1525 1527 1529
1509 1508 1507 1506 1505 1504 1503 1502 1501 1500 1499 1498 1497 1496 1495 1494 1493 1492 1492 1491 1491 1490 1489 1489 1488 1488 1487 1486 1486 1485 1485 1486 1484 1483 1483 1482 1483 1483 1485 1487 1488 1490 1492 1494 1496 1498 1500 1501 1502 1505 1507 1508 1509 1510 1509 1508 1509 1509 1507 1505 1502 1502 1502 1499 1498 1498 1498 1499 1500 1502 1503 1505 1506 1507 1508 1508 1511 1512 1510 1513 1514 1514 1516 1518 1522 1525 1527 1529
1508 1507 1506 1505 1505 1504 1503 1502 1501 1500 1499 1498 1497 1496 1494 1493 1492 1491 1491 1490 1490 1489 1488 1488 1487 1487 1486 1486 1485 1485 1485 1486 1484 1483 1483 1483 1483 1484 1485 1487 1489 1490 1492 1494 1495 1497 1498 1500 1502 1504 1506 1508 1509 1509 1508 1507 1509 1510 1506 1502 1502 1502 1501 1498 1498 1498 1498 1499 1500 1501 1502 1503 1505 1507 1507 1507 1508 1509 1510 1513 1514 1516 1517 1518 1521 1524 1526 1528
1507 1506 1505 1504 1504 1503 1502 1501 1500 1499 1498 1497 1496 1495 1493 1492 1491 1490 1490 1489 1489 1488 1488 1487 1487 1486 1486 1485 1485 1485 1484 1484 1483 1484 1484 1483 1484 1485 1486 1487 1489 1490 1491 1493 1494 1496 1497 1499 1501 1503 1506 1508 1508 1508 1507 1507 1507 1510 1507 1502 1500 1500 1499 1497 1497 1498 1497 1498 1499 1501 1502 1503 1504 1506 1507 1508 1508 1509 1511 1513 1515 1517 1519 1520 1521 1524 1525 1528
1506 1505 1504 1504 1503 1502 1501 1500 1499 1498 1497 1496 1495 1494 1493 1491 1490 1489 1489 1489 1488 1487 1487 1486 1486 1486 1486 1485 1484 1484 1484 1483 1483 1484 1484 1484 1484 1485 1486 1487 1488 1490 1491 1493 1493 1495 1497 1498 1500 1502 1505 1506 1506 1506 1506 1507 1507 1507 1506 1501 1499 1498 1497 1496 1497 1497 1497 1498 1499 1501 1502 1502 1504 1505 1506 1507 1509 1510 1511 1513 1515 1517 1520 1521 1522 1524 1526 1529
1506 1505 1503 1503 1502 1501 1500 1499 1497 1496 1495 1494 1493 1492 1491 1490 1489 1488 1488 1487 1487 1486 1486 1486 1485 1485 1485 1484 1484 1484 1483 1483 1484 1484 1485 1485 1485 1485 1486 1487 1488 1489 1491 1493 1494 1495 1496 1498 1500 1502 1504 1504 1505 1505 1505 1508 1507 1504 1503 1500 1499 1497 1495 1495 1495 1495 1497 1498 1499 1501 1503 1504 1505 1506 1507 1507 1508 1510 1510 1513 1515 1517 1520 1521 1523 1524 1526 1528
1505 1504 1503 1502 1501 1500 1499 1497 1496 1495 1494 1493 1492 1491 1489 1488 1488 1487 1486 1486 1486 1486 1485 1485 1485 1484 1484 1484 1484 1484 1482 1483 1484 1484 1485 1485 1485 1485 1486 1487 1487 1489 1490 1492 1494 1495 1496 1498 1500 1502 1503 1504 1505 1505 1505 1507 1506 1502 1501 1499 1497 1496 1494 1493 1494 1494 1496 1498 1498 1501 1504 1504 1505 1507 1508 1507 1508 1509 1510 1513 1515 1517 1519 1521 1523 1524 1526 1528
1504 1503 1502 1501 1500 1499 1498 1496 1495 1494 1493 1492 1491 1489 1488 1487 1486 1486 1485 1485 1485 1485 1484 1484 1484 1484 1484 1484 1484 1483 1482 1483 1484 1484 1485 1485 1485 1486 1486 1486 1487 1488 1490 1491 1493 1495 1497 1499 1501 1502 1503 1504 1504 1504 1504 1504 1503 1501 1500 1499 1496 1495 1493 1491 1492 1494 1496 1498 1498 1500 1504 1506 1506 1507 1505 1504 1507 1509 1510 1513 1515 1516 1518 1521 1523 1525 1527 1529
1504 1503 1501 1500 1499 1498 1497 1495 1494 1493 1492 1491 1490 1488 1486 1485 1485 1485 1484 1484 1484 1484 1484 1484 1483 1483 1483 1483 1483 1483 1482 1483 1483 1484 1484 1485 1486 1486 1486 1486 1487 1488 1489 1491 1493 1495 1497 1500 1501 1502 1503 1503 1504 1504 1503 1502 1502 1500 1500 1501 1498 1495 1493 1490 1490 1493 1494 1498 1498 1500 1508 1510 1507 1504 1502 1503 1506 1508 1510 1512 1514 1516 1519 1521 1523 1525 1527 1529
1504 1502 1501 1500 1498 1497 1496 1494 1493 1492 1491 1490 1489 1487 1485 1484 1484 1484 1483 1483 1483 1483 1483 1483 1483 1482 1482 1482 1481 1482 1482 1482 1483 1483 1484 1484 1485 1486 1486 1487 1487 1489 1490 1492 1493 1495 1497 1500 1501 1502 1502 1503 1503 1504 1503 1500 1500 1500 1499 1501 1501 1501 1497 1490 1490 1493 1494 1498 1497 1500 1513 1512 1504 1502 1502 1503 1505 1507 1510 1512 1514 1516 1518 1521 1523 1524 1526 1528
1503 1501 1500 1499 1497 1496 1494 1493 1492 1491 1490 1489 1488 1486 1484 1484 1483 1483 1482 1482 1482 1482 1482 1482 1482 1482 1482 1481 1481 1482 1482 1482 1482 1483 1483 1484 1485 1485 1486 1487 1487 1489 1490 1492 1494 1496 1497 1499 1501 1502 1502 1503 1503 1502 1502 1501 1500 1501 1500 1502 1506 1508 1501 1492 1492 1494 1497 1500 1496 1502 1514 1508 1500 1501 1502 1503 1504 1506 1509 1511 1513 1516 1518 1520 1522 1524 1525 1527
1502 1500 1499 1498 1496 1495 1493 1492 1491 1489 1489 1488 1487 1485 1484 1483 1483 1482 1482 1482 1482 1482 1482 1482 1482 1482 1481 1480 1480 1481 1481 1482 1482 1483 1484 1484 1484 1485 1486 1487 1488 1489 1490 1491 1493 1495 1497 1499 1501 1502 1502 1503 1503 1504 1505 1504 1502 1502 1506 1508 1509 1509 1503 1495 1493 1494 1497 1499 1497 1504 1513 1507 1498 1499 1500 1503 1504 1505 1508 1510 1512 1515 1517 1519 1521 1523 1525 1527
1501 1499 1498 1496 1495 1493 1492 1491 1489 1488 1487 1487 1485 1484 1483 1483 1482 1481 1481 1481 1481 1481 1481 1482 1481 1482 1481 1479 1479 1480 1481 1481 1482 1482 1483 1484 1484 1485 1486 1487 1488 1489 1490 1491 1493 1494 1496 1498 1500 1502 1502 1503 1504 1506 1509 1510 1507 1505 1508 1511 1510 1509 1506 1500 1496 1494 1495 1499 1500 1504 1509 1506 1498 1497 1499 1502 1504 1505 1507 1509 1511 1514 1516 1518 1520 1522 1524 1526
1499 1498 1496 1495 1493 1492 1491 1489 1488 1487 1486 1486 1485 1483 1482 1482 1481 1481 1481 1481 1481 1481 1481 1481 1481 1481 1480 1478 1478 1479 1480 1481 1481 1482 1482 1483 1484 1484 1485 1486 1487 1489 1490 1491 1493 1494 1496 1498 1500 1502 1502 1503 1504 1507 1514 1519 1516 1511 1509 1510 1510 1510 1509 1505 1501 1497 1496 1500 1503 1503 1505 1504 1499 1496 1498 1501 1503 1505 1507 1508 1510 1512 1514 1516 1519 1521 1522 1524
1498 1496 1495 1493 1492 1490 1489 1488 1486 1486 1486 1485 1483 1483 1482 1481 1481 1481 1480 1480 1480 1480 1480 1480 1480 1482 1480 1477 1478 1479 1479 1480 1480 1481 1481 1482 1483 1484 1485 1486 1487 1488 1490 1492 1493 1494 1496 1497 1499 1502 1503 1504 1505 1508 1517 1520 1515 1512 1512 1511 1512 1512 1511 1508 1505 1500 1498 1501 1504 1505 1507 1504 1500 1498 1497 1499 1502 1504 1505 1507 1510 1511 1514 1515 1517 1519 1521 1522
1497 1495 1493 1492 1490 1489 1488 1487 1485 1485 1485 1484 1483 1482 1482 1481 1481 1481 1480 1480 1480 1479 1480 1479 1479 1480 1480 1477 1477 1478 1478 1479 1479 1480 1481 1481 1482 1484 1485 1486 1486 1488 1490 1492 1493 1493 1495 1497 1500 1504 1505 1505 1505 1506 1510 1510 1507 1509 1510 1511 1513 1514 1512 1509 1504 1499 1498 1503 1505 1507 1507 1503 1501 1501 1499 1499 1501 1503 1506 1507 1510 1511 1513 1515 1517 1518 1519 1520
1496 1494 1492 1490 1489 1488 1487 1485 1484 1484 1483 1483 1483 1482 1481 1481 1481 1481 1480 1478 1478 1478 1477 1478 1477 1477 1477 1476 1477 1478 1477 1478 1479 1479 1480 1481 1482 1483 1485 1485 1486 1488 1489 1491 1493 1493 1494 1499 1502 1503 1504 1503 1503 1503 1503 1504 1505 1507 1508 1510 1512 1514 1513 1508 1504 1498 1496 1504 1505 1503 1504 1502 1500 1500 1498 1499 1501 1502 1505 1507 1509 1511 1512 1513 1515 1517 1518 1519
1494 1492 1491 1489 1487 1486 1485 1484 1483 1483 1483 1483 1482 1481 1482 1482 1483 1482 1480 1477 1476 1476 1476 1476 1476 1476 1476 1476 1477 1477 1477 1478 1478 1478 1479 1480 1481 1483 1484 1485 1486 1489 1490 1490 1492 1492 1494 1501 1502 1500 1501 1500 1500 1502 1502 1503 1505 1506 1508 1511 1512 1513 1511 1505 1502 1498 1495 1502 1504 1500 1503 1502 1499 1499 1497 1498 1500 1501 1502 1504 1506 1508 1510 1512 1513 1515 1517 1519
1492 1491 1489 1487 1486 1485 1484 1483 1482 1482 1482 1482 1482 1481 1482 1483 1484 1483 1482 1478 1475 1474 1475 1475 1475 1475 1475 1476 1477 1477 1478 1478 1477 1478 1478 1479 1481 1482 1483 1484 1487 1489 1490 1490 1492 1495 1499 1501 1499 1497 1498 1498 1500 1501 1502 1504 1505 1507 1509 1511 1513 1511 1508 1504 1500 1498 1497 1502 1503 1500 1502 1501 1496 1495 1495 1494 1496 1497 1498 1499 1501 1503 1507 1509 1511 1512 1515 1518
1491 1489 1488 1486 1484 1484 1483 1482 1481 1482 1482 1482 1481 1481 1482 1483 1483 1483 1483 1481 1476 1473 1473 1473 1473 1474 1474 1475 1476 1476 1477 1477 1477 1477 1478 1479 1480 1481 1482 1484 1487 1489 1490 1491 1493 1499 1503 1500 1495 1495 1497 1498 1500 1501 1502 1504 1505 1507 1509 1512 1514 1510 1510 1509 1502 1499 1499 1500 1501 1500 1502 1499 1494 1493 1492 1491 1492 1494 1497 1498 1500 1503 1504 1504 1506 1510 1513 1516
1489 1488 1487 1485 1483 1483 1481 1481 1481 1481 1481 1482 1481 1482 1482 1483 1483 1483 1482 1481 1478 1473 1471 1472 1472 1473 1474 1475 1475 1476 1476 1476 1477 1477 1478 1479 1479 1481 1482 1483 1487 1489 1490 1491 1492 1497 1499 1495 1491 1494 1496 1498 1500 1501 1503 1506 1508 1507 1507 1510 1511 1509 1510 1510 1504 1501 1499 1497 1497 1499 1503 1500 1495 1496 1494 1491 1492 1494 1497 1500 1503 1504 1504 1505 1508 1510 1513 1514
1489 1487 1486 1484 1483 1481 1480 1480 1480 1480 1481 1481 1481 1482 1482 1482 1482 1482 1482 1482 1480 1474 1471 1472 1472 1472 1473 1474 1475 1475 1475 1476 1476 1477 1477 1478 1479 1481 1482 1483 1486 1489 1491 1492 1493 1496 1495 1491 1491 1494 1496 1497 1500 1501 1501 1505 1509 1509 1505 1503 1506 1506 1507 1506 1505 1506 1508 1506 1498 1499 1511 1508 1497 1497 1496 1492 1494 1495 1496 1499 1501 1502 1504 1507 1509 1509 1511 1513
1489 1487 1485 1483 1482 1481 1480 1479 1480 1480 1480 1481 1481 1481 1482 1482 1481 1481 1482 1485 1482 1474 1472 1472 1472 1472 1473 1473 1474 1475 1477 1477 1475 1476 1477 1478 1479 1480 1482 1484 1484 1487 1490 1490 1492 1493 1492 1490 1490 1493 1495 1497 1500 1501 1500 1501 1509 1512 1503 1498 1501 1503 1504 1506 1507 1511 1514 1511 1500 1498 1514 1516 1501 1496 1495 1493 1494 1496 1496 1497 1497 1500 1502 1504 1506 1507 1509 1511
1489 1487 1485 1484 1482 1481 1480 1479 1480 1480 1480 1481 1481 1481 1481 1481 1481 1480 1482 1489 1487 1475 1472 1473 1472 1472 1472 1473 1473 1475 1479 1478 1475 1477 1477 1478 1480 1479 1482 1484 1484 1486 1486 1489 1495 1494 1490 1490 1492 1493 1495 1498 1501 1502 1498 1497 1506 1509 1499 1495 1499 1501 1503 1505 1507 1511 1511 1507 1502 1499 1506 1515 1508 1498 1493 1492 1496 1498 1498 1497 1496 1497 1500 1501 1504 1506 1506 1508
1489 1487 1486 1484 1482 1481 1481 1480 1480 1480 1480 1481 1480 1481 1481 1480 1481 1480 1484 1495 1489 1474 1473 1473 1471 1472 1473 1473 1474 1474 1477 1475 1476 1479 1478 1478 1480 1478 1481 1483 1484 1485 1484 1489 1498 1494 1489 1491 1492 1493 1496 1499 1498 1496 1493 1495 1501 1500 1493 1495 1497 1498 1501 1502 1505 1510 1509 1509 1510 1503 1503 1514 1513 1500 1494 1494 1498 1501 1497 1494 1493 1493 1496 1499 1501 1502 1503 1505
1490 1488 1486 1485 1484 1483 1481 1481 1480 1480 1480 1480 1479 1480 1479 1479 1481 1480 1487 1495 1485 1473 1474 1473 1472 1473 1473 1473 1474 1474 1474 1474 1477 1480 1478 1479 1480 1479 1481 1483 1483 1485 1485 1488 1493 1491 1488 1489 1490 1491 1495 1496 1492 1489 1489 1493 1496 1492 1491 1494 1495 1497 1499 1501 1505 1508 1509 1516 1517 1506 1503 1514 1513 1503 1501 1502 1501 1500 1493 1489 1490 1491 1494 1495 1496 1497 1500 1503
1490 1489 1487 1486 1485 1484 1483 1482 1481 1480 1480 1479 1480 1479 1478 1480 1481 1485 1495 1494 1482 1476 1475 1473 1474 1474 1473 1475 1475 1474 1475 1476 1477 1479 1479 1480 1480 1480 1482 1483 1483 1485 1487 1488 1490 1490 1488 1488 1488 1490 1493 1491 1488 1488 1488 1489 1490 1489 1492 1494 1497 1501 1500 1502 1507 1506 1515 1524 1515 1503 1503 1510 1514 1508 1505 1503 1496 1491 1488 1487 1488 1489 1490 1490 1491 1493 1496 1500
1490 1489 1488 1486 1485 1484 1483 1482 1481 1480 1479 1479 1479 1478 1478 1480 1482 1492 1498 1489 1480 1479 1475 1474 1475 1473 1474 1476 1476 1476 1476 1478 1479 1479 1482 1484 1483 1483 1485 1486 1487 1489 1491 1491 1491 1491 1490 1490 1491 1491 1491 1490 1487 1487 1488 1488 1488 1490 1493 1495 1501 1506 1505 1509 1511 1510 1525 1528 1508 1501 1504 1507 1515 1516 1510 1504 1494 1489 1489 1487 1485 1483 1483 1484 1487 1491 1494 1498
1491 1490 1488 1487 1486 1484 1483 1482 1481 1480 1479 1479 1478 1478 1479 1483 1489 1496 1494 1484 1483 1483 1477 1477 1476 1474 1475 1476 1479 1480 1479 1482 1484 1483 1487 1490 1490 1493 1495 1496 1496 1497 1500 1500 1496 1494 1494 1494 1494 1492 1490 1489 1489 1489 1489 1490 1490 1492 1495 1496 1506 1515 1517 1520 1522 1521 1527 1521 1505 1504 1506 1505 1512 1515 1511 1505 1498 1496 1494 1489 1485 1482 1480 1481 1484 1488 1492 1496
1491 1490 1489 1487 1486 1484 1483 1482 1481 1481 1480 1478 1478 1478 1480 1489 1497 1496 1490 1486 1486 1482 1477 1478 1478 1477 1476 1477 1483 1484 1483 1488 1488 1487 1490 1492 1495 1498 1499 1499 1499 1498 1501 1503 1502 1500 1500 1498 1495 1493 1492 1491 1492 1494 1495 1494 1492 1495 1496 1498 1507 1518 1525 1530 1532 1531 1527 1514 1505 1506 1505 1504 1508 1511 1509 1504 1501 1498 1495 1491 1488 1484 1482 1483 1484 1486 1490 1493
1491 1490 1489 1488 1486 1485 1483 1482 1481 1480 1479 1478 1478 1478 1484 1496 1499 1492 1489 1488 1484 1479 1478 1480 1479 1478 1479 1482 1485 1484 1487 1494 1492 1491 1493 1494 1498 1502 1501 1499 1499 1499 1499 1503 1506 1506 1508 1507 1502 1499 1499 1496 1495 1497 1498 1497 1495 1496 1496 1496 1501 1507 1517 1524 1523 1522 1519 1513 1509 1507 1505 1504 1506 1509 1507 1503 1502 1499 1495 1492 1487 1484 1483 1484 1486 1488 1491 1492
1491 1490 1490 1488 1486 1486 1483 1483 1481 1480 1479 1478 1478 1483 1492 1501 1499 1493 1491 1488 1483 1481 1481 1480 1480 1480 1483 1485 1486 1484 1487 1494 1495 1495 1497 1500 1505 1509 1507 1505 1503 1502 1501 1504 1509 1509 1511 1513 1506 1501 1501 1499 1498 1497 1495 1496 1497 1497 1496 1497 1500 1502 1506 1511 1512 1510 1508 1511 1512 1507 1506 1505 1502 1501 1500 1499 1500 1497 1494 1491 1488 1486 1485 1484 1486 1488 1489 1490
1491 1490 1490 1488 1487 1485 1483 1483 1481 1480 1479 1477 1480 1491 1498 1499 1497 1495 1491 1486 1484 1484 1482 1482 1484 1486 1489 1489 1489 1488 1486 1491 1496 1498 1503 1506 1509 1510 1510 1508 1506 1505 1504 1506 1511 1511 1513 1514 1508 1502 1500 1497 1499 1498 1495 1497 1499 1497 1498 1501 1502 1501 1502 1506 1512 1511 1506 1510 1514 1512 1516 1515 1505 1499 1498 1499 1499 1497 1496 1494 1492 1492 1489 1487 1488 1488 1488 1488
1491 1490 1489 1487 1486 1485 1484 1483 1481 1480 1479 1476 1484 1496 1497 1495 1494 1492 1488 1485 1485 1484 1483 1488 1492 1493 1495 1495 1497 1494 1489 1492 1497 1501 1507 1510 1511 1512 1511 1509 1507 1506 1505 1506 1510 1511 1513 1514 1510 1506 1503 1498 1497 1497 1495 1496 1497 1498 1501 1502 1501 1501 1503 1505 1511 1515 1513 1515 1520 1524 1529 1529 1523 1516 1508 1503 1502 1500 1500 1499 1496 1494 1492 1491 1491 1490 1489 1487
1491 1490 1489 1487 1486 1485 1484 1482 1481 1480 1478 1479 1489 1496 1495 1494 1493 1490 1488 1486 1486 1484 1486 1493 1496 1495 1497 1499 1502 1499 1494 1496 1500 1504 1510 1513 1514 1514 1513 1510 1508 1507 1506 1504 1508 1511 1512 1514 1512 1507 1506 1503 1497 1497 1500 1499 1496 1498 1500 1500 1500 1504 1507 1506 1511 1518 1518 1520 1528 1532 1533 1534 1535 1530 1519 1514 1513 1509 1506 1503 1500 1497 1495 1495 1493 1490 1488 1486
1492 1490 1489 1488 1486 1486 1484 1483 1482 1480 1479 1486 1495 1497 1494 1495 1493 1490 1489 1487 1486 1487 1490 1495 1496 1496 1498 1501 1503 1502 1498 1501 1505 1508 1513 1517 1517 1515 1513 1513 1510 1508 1507 1505 1508 1513 1512 1515 1516 1508 1505 1506 1503 1506 1516 1514 1503 1498 1500 1501 1502 1505 1508 1509 1513 1516 1515 1519 1528 1533 1537 1539 1535 1529 1524 1523 1520 1515 1511 1508 1504 1503 1501 1498 1496 1492 1488 1485
1492 1491 1490 1489 1487 1487 1486 1485 1483 1482 1485 1493 1498 1497 1495 1495 1494 1492 1490 1488 1488 1490 1494 1497 1497 1498 1501 1501 1502 1503 1504 1506 1508 1511 1516 1519 1519 1515 1514 1514 1512 1510 1509 1507 1510 1514 1513 1516 1520 1513 1507 1511 1516 1520 1525 1523 1514 1510 1511 1513 1513 1511 1510 1511 1517 1520 1518 1520 1525 1533 1546 1548 1533 1525 1525 1524 1521 1517 1515 1512 1508 1506 1504 1500 1497 1494 1489 1485
1492 1492 1492 1490 1489 1488 1487 1486 1487 1489 1493 1497 1498 1497 1497 1497 1496 1495 1492 1491 1492 1494 1496 1498 1499 1502 1503 1503 1504 1505 1508 1512 1513 1514 1519 1521 1521 1519 1515 1514 1514 1511 1510 1510 1512 1514 1515 1518 1521 1521 1520 1523 1526 1524 1521 1521 1520 1519 1520 1523 1523 1519 1515 1516 1522 1524 1522 1524 1527 1533 1548 1548 1532 1524 1524 1523 1522 1519 1516 1513 1510 1507 1505 1502 1498 1494 1491 1487
1493 1495 1495 1492 1491 1490 1488 1490 1494 1495 1497 1500 1501 1500 1499 1499 1499 1497 1495 1494 1494 1496 1497 1498 1501 1505 1506 1506 1508 1508 1510 1516 1518 1517 1520 1523 1523 1522 1518 1514 1514 1512 1511 1515 1517 1515 1516 1519 1522 1527 1530 1529 1526 1523 1522 1521 1520 1519 1521 1523 1523 1522 1523 1523 1525 1526 1526 1529 1529 1530 1541 1544 1531 1524 1524 1523 1522 1520 1517 1514 1511 1508 1506 1503 1499 1495 1492 1488
1495 1497 1495 1492 1492 1491 1490 1495 1499 1499 1500 1502 1502 1502 1501 1502 1502 1500 1499 1498 1498 1499 1500 1503 1504 1506 1508 1508 1509 1510 1513 1518 1522 1521 1521 1522 1522 1521 1519 1515 1513 1513 1513 1516 1519 1516 1517 1523 1526 1529 1531 1527 1523 1522 1523 1521 1521 1522 1524 1524 1524 1525 1525 1525 1524 1525 1529 1534 1532 1530 1538 1540 1530 1524 1524 1523 1521 1519 1516 1514 1512 1510 1507 1503 1500 1497 1493 1490
1497 1497 1496 1494 1493 1491 1493 1500 1503 1503 1504 1503 1503 1504 1503 1504 1505 1504 1503 1503 1503 1503 1505 1508 1508 1508 1510 1510 1510 1513 1514 1518 1523 1523 1522 1523 1522 1520 1518 1515 1514 1514 1514 1516 1518 1515 1520 1528 1529 1531 1536 1534 1528 1526 1525 1524 1526 1530 1530 1528 1527 1526 1525 1524 1523 1525 1531 1537 1535 1533 1536 1536 1530 1527 1526 1524 1521 1519 1516 1515 1514 1511 1509 1506 1503 1499 1496 1493
1498 1498 1497 1496 1495 1493 1497 1503 1504 1505 1506 1506 1506 1507 1507 1507 1508 1509 1507 1507 1507 1507 1508 1510 1510 1510 1511 1511 1512 1515 1514 1515 1521 1524 1524 1524 1523 1520 1519 1517 1516 1515 1515 1517 1516 1515 1522 1532 1530 1529 1535 1537 1535 1534 1533 1533 1534 1534 1534 1531 1529 1527 1526 1525 1525 1528 1534 1538 1535 1534 1535 1534 1531 1529 1527 1525 1522 1519 1517 1516 1515 1512 1511 1509 1505 1502 1499 1496
1500 1500 1501 1499 1497 1497 1500 1503 1503 1505 1507 1508 1509 1511 1511 1511 1511 1510 1509 1509 1510 1510 1511 1513 1512 1512 1513 1513 1516 1519 1518 1517 1519 1523 1525 1525 1524 1522 1521 1519 1517 1517 1517 1517 1516 1517 1524 1533 1533 1530 1531 1534 1537 1538 1537 1537 1538 1538 1538 1535 1531 1530 1529 1527 1528 1531 1534 1535 1533 1532 1534 1535 1533 1531 1530 1528 1524 1522 1520 1518 1516 1514 1512 1510 1507 1504 1502 1500
1503 1505 1506 1504 1503 1503 1504 1505 1505 1506 1507 1509 1512 1514 1515 1514 1513 1512 1511 1512 1512 1512 1513 1515 1514 1514 1515 1516 1519 1522 1523 1521 1521 1524 1527 1527 1525 1524 1523 1521 1520 1519 1519 1518 1518 1520 1526 1533 1534 1533 1533 1534 1536 1537 1535 1536 1538 1539 1539 1536 1533 1531 1530 1529 1530 1531 1531 1533 1533 1531 1533 1538 1536 1533 1533 1532 1528 1527 1524 1522 1520 1518 1515 1513 1509 1506 1504 1502
1505 1508 1509 1507 1508 1509 1509 1509 1508 1508 1508 1509 1512 1516 1517 1516 1516 1516 1515 1513 1514 1514 1515 1518 1519 1518 1518 1518 1520 1524 1526 1525 1526 1527 1527 1527 1527 1525 1524 1524 1523 1522 1521 1521 1520 1521 1527 1534 1535 1534 1536 1536 1536 1536 1536 1536 1537 1537 1537 1536 1534 1533 1532 1531 1530 1529 1529 1532 1533 1532 1533 1538 1538 1534 1534 1533 1531 1530 1528 1526 1524 1521 1518 1515 1511 1508 1506 1504
1508 1509 1510 1509 1510 1512 1512 1512 1510 1510 1510 1511 1514 1517 1518 1518 1518 1518 1517 1516 1517 1516 1517 1521 1523 1521 1520 1519 1520 1525 1527 1527 1528 1529 1528 1528 1528 1527 1526 1526 1526 1524 1523 1523 1523 1524 1528 1533 1534 1535 1538 1539 1538 1538 1537 1536 1536 1536 1536 1536 1536 1534 1533 1532 1531 1529 1528 1530 1532 1532 1534 1538 1537 1535 1534 1533 1533 1532 1530 1527 1524 1521 1519 1517 1514 1512 1510 1508
1510 1511 1511 1510 1511 1512 1513 1513 1512 1512 1513 1514 1517 1519 1519 1519 1519 1519 1518 1518 1520 1519 1519 1522 1524 1522 1522 1521 1521 1524 1526 1525 1527 1529 1528 1528 1529 1528 1529 1529 1528 1527 1525 1525 1526 1526 1529 1534 1534 1535 1539 1541 1540 1539 1538 1537 1537 1537 1537 1536 1535 1533 1532 1531 1532 1531 1531 1533 1535 1535 1537 1538 1536 1534 1534 1534 1533 1531 1528 1526 1524 1523 1522 1519 1517 1515 1513 1511
1512 1513 1512 1512 1513 1515 1515 1514 1514 1515 1516 1517 1519 1520 1520 1521 1520 1520 1520 1519 1520 1520 1520 1522 1523 1522 1523 1523 1523 1525 1525 1525 1526 1526 1526 1527 1527 1527 1527 1528 1528 1528 1528 1528 1528 1527 1528 1534 1536 1535 1540 1543 1542 1540 1539 1537 1538 1539 1538 1536 1536 1535 1534 1533 1535 1536 1537 1538 1537 1537 1539 1540 1537 1534 1534 1533 1532 1530 1529 1527 1526 1525 1523 1521 1519 1518 1516 1514
1514 1514 1513 1513 1515 1517 1517 1516 1516 1517 1519 1520 1520 1520 1521 1521 1520 1520 1521 1522 1520 1520 1520 1521 1522 1523 1524 1525 1524 1524 1524 1524 1524 1525 1525 1525 1525 1525 1525 1526 1526 1527 1529 1529 1530 1530 1530 1533 1536 1537 1540 1543 1543 1542 1539 1538 1541 1543 1540 1537 1537 1537 1536 1535 1537 1538 1538 1538 1538 1539 1540 1539 1537 1535 1534 1533 1533 1532 1530 1529 1527 1526 1524 1523 1521 1520 1518 1516